Regional Weather Roundup
Issued by NWS Cleveland, OH

Home | Current Version | Previous Version | Graphics & Text | Print | Product List | Glossary On
Versions: 1 2 3 4 5 6 7 8 9 10 11 12 13 14 15 16 17 18 19 20 21 22 23 24 25 26 27 28 29 30 31 32 33 34 35 36 37 38 39 40 41 42 43 44 45 46 47 48 49 50
000
ASUS41 KCLE 301310
RWRCLE
OHIO REGIONAL WEATHER ROUNDUP
NATIONAL WEATHER SERVICE WILMINGTON, OH
900 AM EDT THU MAR 30 2017

NOTE: "FAIR" INDICATES FEW OR NO CLOUDS BELOW 12,000 FEET WITH NO
SIGNIFICANT WEATHER AND/OR OBSTRUCTIONS TO VISIBILITY.

OHZ001>008-015>018-024>027-034-035-043-044-301400-
   NORTHWEST OHIO

CITY           SKY/WX    TMP DP  RH WIND       PRES   REMARKS
DEFIANCE       LGT RAIN  40  36  86 NE14G23   29.92F
FINDLAY        TSTM      43  37  79 NE13      29.92R
TOLEDO EXPRESS LGT RAIN  38  37  97 E15       29.97R
TOLEDO EXEC    RAIN      40  37  89 E15G21    29.97F FOG
LIMA           CLOUDY    47  38  71 NE8       29.89R
$$

OHZ009>014-019>023-028>033-038-089-301400-
   NORTHEAST OHIO

CITY           SKY/WX    TMP DP  RH WIND       PRES   REMARKS
CLE-HOPKINS    CLOUDY    46  32  58 E15       29.98F
CLE-LAKEFRONT  CLOUDY    47  32  56 E15       29.96F
CUY CO. ARPT   CLOUDY    45  34  65 SE14G23   29.98F
LORAIN-ELYRIA  CLOUDY    44  33  65 E13       29.94F
ASHTABULA      LGT RAIN  41  34  76 SE9       30.06S
AKRON-CANTON   LGT RAIN  45  31  58 SE14G25   29.98F
WOOSTER        PTSUNNY   45  32  60 SE18      29.94F
MANSFIELD      PTSUNNY   46  33  60 SE20      29.90F
YOUNGSTOWN     CLOUDY    42  32  67 E13       30.02F
$$

OHZ042-051>053-060>062-070>072-077>081-301400-
  SOUTHWEST OHIO

CITY           SKY/WX    TMP DP  RH WIND       PRES   REMARKS
CINC-COVINGTON CLOUDY    54  48  80 SE10      29.82F
CINC-LUNKEN    PTSUNNY   54  50  86 CALM      29.85S
HAMILTON       PTSUNNY   53  45  74 E7        29.85S
DAYTON         PTSUNNY   50  36  58 SE14      29.85F
WRIGHT-PAT AFB CLOUDY    50  36  57 E10       29.85F
DAYTON GENERAL FAIR      50  38  63 E12       29.84S
WILMINGTON     FAIR      48  40  73 E8        29.85F
$$

OHZ036-037-039>041-045>050-054>059-063>069-073>076-082>088-301400-
  CENTRAL AND SOUTHEAST OHIO

CITY           SKY/WX    TMP DP  RH WIND       PRES   REMARKS
COLUMBUS       CLOUDY    50  35  56 SE16      29.89F
OSU AIRPORT    PTSUNNY   50  36  58 SE14      29.88F
BOLTON FIELD   PTSUNNY   48  36  61 E16G23    29.89F
RICKENBACK AFB CLOUDY    48  36  62 E10       29.90F
NEWARK         PTSUNNY   50  33  52 E8        29.91F
MARION         LGT RAIN  48  34  58 SE21      29.87F
LANCASTER      CLOUDY    51  36  56 SE12      29.92F
ZANESVILLE     FAIR      50  34  54 E12       29.94F
NEW PHILLY     FAIR      49  32  52 E13       29.98F
$$




USA.gov is the U.S. government's official web portal to all federal, state and local government web resources and services.